Location: �couen
(49.0206°N, 2.3831°E)
Time: 03:17:04
(UTC+00:00)

Cosmos 2098 - Pass Details

Date: 01 June 2022
Orbit: 387 x 1576 km, 82.9° (Epoch: 04 July)

Event Time Altitude Azimuth Distance (km) Brightness Sun altitude
Rises 03:00:33 0° 346° (NNW) 2,320 8.5 -7.1°
Reaches altitude 10° 03:02:34 10° 340° (NNW) 1,432 7.3 -6.8°
Maximum altitude 03:05:28 48° 265° (W) 524 4.4 -6.5°
Drops below altitude 10° 03:08:30 10° 189° (S) 1,504 6.6 -6.1°
Enters shadow 03:10:34 - 184° (S) 2,407 7.6 -5.9°
